1 Anzeige mit Außen Messungen

Zurück zum Überblick

Zeitpunkt Temperatur Innen Luftfeuchte Innen Luftqualität Temperatur Außen
26.01.2020 23:29:16 22,0 C OFL 850 ppm 1,7 C
26.01.2020 23:27:44 22,0 C OFL 850 ppm 1,7 C
26.01.2020 23:11:17 22,0 C OFL 850 ppm 1,6 C
26.01.2020 23:09:49 22,0 C OFL 850 ppm 1,5 C
26.01.2020 22:59:14 22,0 C OFL 850 ppm 1,5 C
26.01.2020 22:53:14 22,0 C OFL 850 ppm 1,5 C
26.01.2020 22:47:18 22,0 C OFL 850 ppm 1,5 C
26.01.2020 22:41:14 22,0 C OFL 900 ppm 1,5 C
26.01.2020 22:39:42 22,0 C OFL 900 ppm 1,5 C
26.01.2020 22:23:15 22,0 C OFL 900 ppm 1,5 C
26.01.2020 22:21:47 22,0 C OFL 900 ppm 1,6 C
26.01.2020 22:05:17 22,0 C OFL 900 ppm 1,7 C
26.01.2020 22:03:45 22,0 C OFL 900 ppm 1,7 C
26.01.2020 21:53:17 22,0 C OFL 900 ppm 1,8 C
26.01.2020 21:47:12 22,0 C OFL 900 ppm 1,9 C
26.01.2020 21:41:15 22,0 C OFL 900 ppm 2,0 C
26.01.2020 21:35:19 22,0 C OFL 900 ppm 2,1 C
26.01.2020 21:33:51 22,0 C OFL 900 ppm 2,2 C
26.01.2020 21:23:12 22,5 C OFL 900 ppm 2,2 C
26.01.2020 21:21:44 22,5 C OFL 900 ppm 2,2 C
26.01.2020 21:05:11 22,5 C OFL 950 ppm 2,3 C
26.01.2020 20:59:11 22,5 C OFL 950 ppm 2,3 C
26.01.2020 20:53:17 22,5 C OFL 950 ppm 2,4 C
26.01.2020 20:47:13 22,5 C OFL 950 ppm 2,4 C
26.01.2020 20:41:16 22,5 C OFL 950 ppm 2,5 C
26.01.2020 20:39:44 22,5 C OFL 1000 ppm 2,6 C
26.01.2020 20:23:11 22,5 C OFL 1000 ppm 2,8 C
26.01.2020 20:17:11 22,5 C OFL 1000 ppm 3,0 C
26.01.2020 20:11:14 22,5 C OFL 1000 ppm 3,1 C
26.01.2020 20:05:14 22,5 C OFL 1000 ppm 3,2 C
26.01.2020 19:59:14 22,5 C OFL 1000 ppm 3,4 C
26.01.2020 19:53:13 22,5 C OFL 1000 ppm 3,6 C
26.01.2020 19:47:11 22,5 C OFL 1000 ppm 3,8 C
26.01.2020 19:41:11 22,5 C OFL 1000 ppm 3,9 C
26.01.2020 19:35:16 22,5 C OFL 1000 ppm 3,9 C
26.01.2020 19:29:10 22,5 C OFL 1000 ppm 3,9 C
26.01.2020 19:23:09 22,5 C OFL 1000 ppm 3,8 C
26.01.2020 19:17:11 22,5 C OFL 1000 ppm 3,7 C
26.01.2020 19:11:11 22,5 C OFL 1000 ppm 3,5 C
26.01.2020 19:05:11 22,5 C OFL 1000 ppm 3,4 C
26.01.2020 18:59:09 22,5 C OFL 1000 ppm 3,3 C
26.01.2020 18:53:14 22,5 C OFL 1050 ppm 3,1 C
26.01.2020 18:47:08 22,5 C OFL 1050 ppm 3,0 C
26.01.2020 18:41:08 22,5 C OFL 1050 ppm 2,9 C
26.01.2020 18:35:08 22,5 C OFL 1050 ppm 2,9 C
26.01.2020 18:29:10 22,5 C OFL 1050 ppm 2,8 C
26.01.2020 18:23:10 22,5 C OFL 1050 ppm 2,9 C
26.01.2020 18:17:10 22,5 C OFL 1050 ppm 3,1 C
26.01.2020 18:11:12 22,5 C OFL 1050 ppm 3,3 C
26.01.2020 18:05:08 22,5 C OFL 1050 ppm 3,5 C
26.01.2020 17:59:12 22,5 C OFL 1050 ppm 3,8 C
26.01.2020 17:57:40 22,5 C OFL 1050 ppm 4,0 C
26.01.2020 17:47:08 22,5 C OFL 1050 ppm 4,2 C
26.01.2020 17:41:07 22,5 C OFL 1050 ppm 4,2 C
26.01.2020 17:35:09 22,5 C OFL 1050 ppm 4,3 C
26.01.2020 17:29:07 22,5 C OFL 1050 ppm 4,4 C
26.01.2020 17:23:13 22,5 C OFL 1050 ppm 4,4 C
26.01.2020 17:17:09 22,5 C OFL 1050 ppm 4,4 C
26.01.2020 17:11:09 22,5 C OFL 1050 ppm 4,6 C
26.01.2020 17:05:09 22,5 C OFL 1050 ppm 4,6 C
26.01.2020 16:59:10 22,5 C OFL 1000 ppm 4,6 C
26.01.2020 16:53:11 22,5 C OFL 1000 ppm 4,8 C
26.01.2020 16:47:07 22,5 C OFL 1000 ppm 4,8 C
26.01.2020 16:41:13 22,5 C OFL 1000 ppm 4,9 C
26.01.2020 16:35:10 22,5 C OFL 1000 ppm 5,0 C
26.01.2020 16:29:09 22,5 C OFL 950 ppm 5,0 C
26.01.2020 16:23:07 22,5 C OFL 950 ppm 5,1 C
26.01.2020 16:17:08 22,5 C OFL 950 ppm 5,2 C
26.01.2020 16:11:10 22,5 C OFL 950 ppm 5,3 C
26.01.2020 16:05:07 22,5 C OFL 950 ppm 5,2 C
26.01.2020 15:59:08 22,5 C OFL 900 ppm 5,3 C
26.01.2020 15:53:09 22,5 C OFL 900 ppm 5,4 C
26.01.2020 15:47:09 22,5 C OFL 900 ppm 5,4 C
26.01.2020 15:41:08 22,5 C OFL 900 ppm 5,5 C
26.01.2020 15:35:11 22,0 C OFL 900 ppm 5,7 C
26.01.2020 15:29:07 22,0 C OFL 900 ppm 5,8 C
26.01.2020 15:23:11 22,0 C OFL 850 ppm 5,9 C
26.01.2020 15:17:11 22,0 C OFL 850 ppm 6,0 C
26.01.2020 15:11:06 22,0 C OFL 850 ppm 6,1 C
26.01.2020 15:05:08 22,0 C OFL 850 ppm 6,3 C
26.01.2020 14:59:05 22,0 C OFL 800 ppm 6,4 C
26.01.2020 14:53:07 22,0 C OFL 800 ppm 6,4 C
26.01.2020 14:47:06 22,0 C OFL 800 ppm 6,5 C
26.01.2020 14:41:12 22,0 C OFL 800 ppm 6,4 C
26.01.2020 14:35:06 22,0 C OFL 750 ppm 6,6 C
26.01.2020 14:33:34 22,0 C OFL 750 ppm 6,6 C
26.01.2020 13:05:05 22,0 C OFL 600 ppm 4,7 C
26.01.2020 12:59:09 22,0 C OFL 600 ppm 4,7 C
26.01.2020 12:53:06 22,0 C OFL 600 ppm 4,6 C
26.01.2020 12:47:07 22,0 C OFL 600 ppm 4,6 C
26.01.2020 12:41:05 22,0 C OFL 600 ppm 4,7 C
26.01.2020 12:39:37 21,5 C OFL 600 ppm 4,6 C
26.01.2020 11:23:05 21,5 C OFL 600 ppm 1,6 C
26.01.2020 11:17:02 21,5 C OFL 600 ppm 1,2 C
26.01.2020 11:15:30 21,5 C OFL 600 ppm 0,9 C
26.01.2020 10:59:07 21,5 C OFL 600 ppm 0,6 C
26.01.2020 10:53:02 21,5 C OFL 600 ppm 0,3 C
26.01.2020 10:47:02 21,5 C OFL 600 ppm 0,0 C
26.01.2020 10:45:34 21,5 C OFL 600 ppm -0,2 C
26.01.2020 10:35:01 21,5 C OFL 600 ppm -0,6 C
26.01.2020 10:29:02 21,5 C OFL 600 ppm -1,0 C
26.01.2020 10:23:03 21,5 C OFL 600 ppm -1,3 C
26.01.2020 10:21:35 21,5 C OFL 600 ppm -1,5 C
26.01.2020 09:53:07 21,5 C OFL 550 ppm -2,1 C
26.01.2020 09:47:04 21,5 C OFL 550 ppm -2,3 C
26.01.2020 09:45:36 21,5 C OFL 550 ppm -2,5 C
26.01.2020 09:23:02 21,5 C OFL 550 ppm -2,9 C
26.01.2020 09:17:04 21,5 C OFL 550 ppm -3,1 C
26.01.2020 09:15:36 21,5 C OFL 550 ppm -3,1 C
26.01.2020 08:29:00 21,0 C OFL 550 ppm -3,3 C
26.01.2020 08:27:28 21,0 C OFL 550 ppm -3,4 C
26.01.2020 08:17:02 21,0 C OFL 550 ppm -3,4 C
26.01.2020 08:15:30 21,0 C OFL 550 ppm -3,6 C
26.01.2020 07:59:03 21,0 C OFL 550 ppm -3,6 C
26.01.2020 07:53:04 21,0 C OFL 500 ppm -3,6 C
26.01.2020 07:47:04 21,0 C OFL 550 ppm -3,7 C
26.01.2020 07:41:00 21,0 C OFL 550 ppm -3,8 C
26.01.2020 07:39:28 21,0 C OFL 500 ppm -3,8 C
26.01.2020 07:28:59 21,0 C OFL 500 ppm -3,8 C
26.01.2020 07:23:00 21,0 C OFL 550 ppm -3,9 C
26.01.2020 07:16:58 21,0 C OFL 500 ppm -3,8 C
26.01.2020 07:11:00 21,0 C OFL 500 ppm -3,9 C
26.01.2020 07:05:02 21,0 C OFL 550 ppm -3,9 C
26.01.2020 06:59:04 21,0 C OFL 550 ppm -4,0 C
26.01.2020 06:53:02 21,0 C OFL 550 ppm -4,0 C
26.01.2020 06:46:58 21,0 C OFL 550 ppm -3,9 C
26.01.2020 06:40:59 21,0 C OFL 550 ppm -4,0 C
26.01.2020 06:39:27 21,0 C OFL 450 ppm -3,9 C
26.01.2020 06:29:02 21,0 C OFL 450 ppm -3,9 C
26.01.2020 06:27:30 21,0 C OFL 450 ppm -4,0 C
26.01.2020 06:16:57 21,0 C OFL 450 ppm -4,0 C
26.01.2020 06:15:25 21,0 C OFL 450 ppm -3,9 C
26.01.2020 05:47:00 21,0 C OFL 450 ppm -4,2 C
26.01.2020 05:41:02 21,0 C OFL 450 ppm -4,3 C
26.01.2020 05:34:58 21,0 C OFL 450 ppm -4,3 C
26.01.2020 05:33:30 21,0 C OFL 450 ppm -4,3 C
26.01.2020 05:22:57 21,0 C OFL 450 ppm -4,4 C
26.01.2020 05:17:02 21,0 C OFL 450 ppm -4,3 C
26.01.2020 05:15:30 21,0 C OFL 450 ppm -4,1 C
26.01.2020 05:04:58 21,0 C OFL 450 ppm -4,2 C
26.01.2020 05:03:26 21,0 C OFL 450 ppm -4,1 C
26.01.2020 04:52:57 21,0 C OFL 450 ppm -4,2 C
26.01.2020 04:51:25 21,0 C OFL 450 ppm -4,2 C
26.01.2020 04:40:56 21,0 C OFL 450 ppm -4,2 C
26.01.2020 04:39:28 21,0 C OFL 450 ppm -4,3 C
26.01.2020 04:23:01 21,0 C OFL 450 ppm -4,4 C
26.01.2020 04:16:58 21,0 C OFL 450 ppm -4,4 C
26.01.2020 04:10:58 21,0 C OFL 450 ppm -4,5 C
26.01.2020 04:04:57 21,0 C OFL 450 ppm -4,3 C
26.01.2020 03:58:55 21,0 C OFL 450 ppm -4,4 C
26.01.2020 03:52:57 21,0 C OFL 500 ppm -4,4 C
26.01.2020 03:46:57 21,0 C OFL 500 ppm -4,3 C
26.01.2020 03:40:57 21,0 C OFL 500 ppm -4,3 C
26.01.2020 03:34:56 21,0 C OFL 500 ppm -4,2 C
26.01.2020 03:33:28 21,0 C OFL 500 ppm -4,4 C
26.01.2020 03:22:54 21,0 C OFL 500 ppm -4,5 C
26.01.2020 03:21:22 21,0 C OFL 500 ppm -4,5 C
26.01.2020 02:58:54 21,0 C OFL 500 ppm -4,2 C
26.01.2020 02:57:26 21,0 C OFL 500 ppm -4,3 C
26.01.2020 02:28:54 21,0 C OFL 550 ppm -3,8 C
26.01.2020 02:22:52 21,5 C OFL 550 ppm -3,9 C
26.01.2020 02:21:20 21,5 C OFL 550 ppm -4,1 C
26.01.2020 02:10:53 21,5 C OFL 550 ppm -4,1 C
26.01.2020 02:04:56 21,5 C OFL 550 ppm -4,1 C
26.01.2020 01:58:53 21,5 C OFL 550 ppm -4,1 C
26.01.2020 01:52:54 21,5 C OFL 550 ppm -4,0 C
26.01.2020 01:51:26 21,5 C OFL 600 ppm -4,1 C
26.01.2020 01:40:58 21,5 C OFL 600 ppm -4,1 C
26.01.2020 01:39:26 21,5 C OFL 600 ppm -4,1 C
26.01.2020 01:28:57 21,5 C OFL 600 ppm -4,0 C
26.01.2020 01:27:25 21,5 C OFL 600 ppm -4,0 C
26.01.2020 01:16:53 21,5 C OFL 600 ppm -4,1 C
26.01.2020 01:15:25 21,5 C OFL 600 ppm -4,2 C
26.01.2020 01:04:52 21,5 C OFL 600 ppm -4,2 C
26.01.2020 00:58:52 21,5 C OFL 650 ppm -4,2 C
26.01.2020 00:57:20 21,5 C OFL 650 ppm -4,2 C
26.01.2020 00:40:54 21,5 C OFL 650 ppm -4,1 C
26.01.2020 00:39:26 21,5 C OFL 650 ppm -4,2 C
26.01.2020 00:04:55 21,5 C OFL 700 ppm -4,1 C
26.01.2020 00:03:27 21,5 C OFL 700 ppm -4,1 C